Stanley, ND

9:22 AM CST on January 20, 2018 (GMT -0600)
Stanley

Weather History for K08D - March, 2014

Change the Weather History Date:

Monday, March 31, 2014

  Actual Average (KMIB) Record (KMIB)
Temperature  
Mean Temperature 14 °F -  
Max Temperature 21 °F 40 °F 68 °F (2003)
Min Temperature 8 °F 21 °F 5 °F (2013)
Degree Days  
Heating Degree Days 50    
Moisture  
Dew Point 3 °F    
Average Humidity 62    
Maximum Humidity 100    
Minimum Humidity 42    
Precipitation  
Precipitation 0.00 in - - ()
Sea Level Pressure  
Sea Level Pressure 30.07 in    
Wind  
Wind Speed 20 mph (NNE)    
Max Wind Speed 24 mph    
Max Gust Speed 39 mph    
Visibility 10 miles    
Events Snow    
Averages and records for this station are not official NWS values.
T = Trace of Precipitation, MM = Missing Value Source: NWS Daily Summary

Daily Weather History Graph

Daily Weather History Graph

Search for Another Location

Airport or City:

Trip Planner

Search our weather history database for the weather conditions in past years. The results will help you decide how hot, cold, wet, or windy it might be!

Date:

Astronomy

Mar. 31, 2014 Rise Set
Actual Time 7:29 AM CDT 8:18 PM CDT
Civil Twilight 6:58 AM CDT 8:50 PM CDT
Nautical Twilight 6:20 AM CDT 9:28 PM CDT
Astronomical Twilight 5:40 AM CDT 10:08 PM CDT
Moon 7:49 AM CDT (3/31) 9:47 PM CDT (3/31)
Length of Visible Light 13h 52m
Length of Day
12h 49m
New Moon, 1% of the Moon is Illuminated
Mar 31
New Moon
Apr 7
First Quarter
Apr 15
Full
Apr 22
Last Quarter
Apr 29
New

Hourly Weather History & Observations

Time (CDT) Temp. Windchill Dew Point Humidity Pressure Visibility Wind Dir Wind Speed Gust Speed Precip Events Conditions
12:15 AM 17.6 °F 0.1 °F 17.6 °F 100% 29.98 in 6.0 mi NE 23.0 mph 31.1 mph N/A Snow Light Snow
12:35 AM 15.8 °F -1.9 °F 15.8 °F 100% 29.98 in 10.0 mi NE 21.9 mph 36.8 mph N/A   Mostly Cloudy
12:55 AM 15.8 °F -2.7 °F 15.8 °F 100% 29.98 in 10.0 mi NE 24.2 mph 32.2 mph N/A   Overcast
1:15 AM 15.8 °F -1.9 °F 14.0 °F 93% 29.98 in 10.0 mi NE 21.9 mph 32.2 mph N/A Snow Light Snow
1:35 AM 15.8 °F -1.5 °F 12.2 °F 86% 29.98 in 10.0 mi NE 20.7 mph 35.7 mph N/A   Overcast
1:55 AM 14.0 °F -3.9 °F 12.2 °F 93% 29.98 in 10.0 mi NE 20.7 mph 32.2 mph N/A   Overcast
2:15 AM 14.0 °F -4.3 °F 10.4 °F 86% 29.98 in 10.0 mi NE 21.9 mph 38.0 mph N/A   Overcast
2:35 AM 14.0 °F -5.1 °F 10.4 °F 86% 29.98 in 10.0 mi NE 24.2 mph 39.1 mph N/A   Overcast
2:55 AM 14.0 °F -4.3 °F 10.4 °F 86% 29.99 in 10.0 mi NE 21.9 mph 34.5 mph N/A   Overcast
3:15 AM 14.0 °F -2.5 °F 10.4 °F 86% 29.99 in 10.0 mi NE 17.3 mph 31.1 mph N/A Snow Light Snow
3:35 AM 12.2 °F -6.7 °F 8.6 °F 85% 30.00 in 10.0 mi NE 21.9 mph 33.4 mph N/A   Overcast
3:55 AM 12.2 °F -6.7 °F 8.6 °F 85% 30.01 in 10.0 mi NE 21.9 mph 28.8 mph N/A   Overcast
4:15 AM 12.2 °F -7.1 °F 6.8 °F 79% 30.01 in 10.0 mi NE 23.0 mph 33.4 mph N/A Snow Light Snow
4:35 AM 12.2 °F -7.1 °F 5.0 °F 73% 30.01 in 10.0 mi NE 23.0 mph 34.5 mph N/A Snow Light Snow
4:55 AM 10.4 °F -6.6 °F 1.4 °F 67% 30.02 in 10.0 mi NE 16.1 mph 32.2 mph N/A   Overcast
5:15 AM 12.2 °F -5.8 °F 1.4 °F 62% 30.02 in 10.0 mi NE 19.6 mph 29.9 mph N/A   Overcast
5:35 AM 10.4 °F -7.2 °F 3.2 °F 73% 30.03 in 10.0 mi NE 17.3 mph 32.2 mph N/A   Overcast
5:55 AM 10.4 °F -8.2 °F 1.4 °F 67% 30.05 in 10.0 mi NNE 19.6 mph 32.2 mph N/A   Overcast
6:15 AM 10.4 °F -6.6 °F 3.2 °F 73% 30.06 in 10.0 mi NNE 16.1 mph 25.3 mph N/A   Overcast
6:35 AM 10.4 °F -6.0 °F 1.4 °F 67% 30.07 in 10.0 mi NNE 15.0 mph 29.9 mph N/A   Overcast
6:55 AM 10.4 °F -7.7 °F 1.4 °F 67% 30.07 in 10.0 mi NNE 18.4 mph 29.9 mph N/A   Overcast
7:15 AM 10.4 °F -7.7 °F 1.4 °F 67% 30.08 in 10.0 mi NNE 18.4 mph 28.8 mph N/A   Overcast
7:35 AM 10.4 °F -8.2 °F 1.4 °F 67% 30.08 in 10.0 mi NE 19.6 mph 28.8 mph N/A   Overcast
7:55 AM 8.6 °F -10.5 °F 1.4 °F 73% 30.09 in 10.0 mi NNE 19.6 mph 29.9 mph N/A   Overcast
8:15 AM 8.6 °F -7.7 °F -0.4 °F 67% 30.10 in 10.0 mi NE 13.8 mph 25.3 mph N/A   Overcast
8:35 AM 8.6 °F -10.0 °F -0.4 °F 67% 30.10 in 10.0 mi NNE 18.4 mph 28.8 mph N/A   Overcast
8:55 AM 8.6 °F -8.9 °F -0.4 °F 67% 30.11 in 10.0 mi NNE 16.1 mph 25.3 mph N/A   Overcast
9:15 AM 8.6 °F -11.0 °F -0.4 °F 67% 30.10 in 10.0 mi NNE 20.7 mph 26.5 mph N/A   Overcast
9:35 AM 10.4 °F -5.4 °F -0.4 °F 62% 30.11 in 10.0 mi NNE 13.8 mph 24.2 mph N/A   Overcast
9:55 AM 10.4 °F -8.2 °F -0.4 °F 62% 30.11 in 10.0 mi NNE 19.6 mph 25.3 mph N/A   Overcast
10:15 AM 10.4 °F -8.6 °F -0.4 °F 62% 30.11 in 10.0 mi NNE 20.7 mph 29.9 mph N/A   Overcast
10:35 AM 10.4 °F -8.2 °F -0.4 °F 62% 30.11 in 10.0 mi NNE 19.6 mph 27.6 mph N/A   Mostly Cloudy
10:55 AM 10.4 °F -8.6 °F -0.4 °F 62% 30.12 in 10.0 mi NNE 20.7 mph 25.3 mph N/A   Scattered Clouds
11:15 AM 12.2 °F -6.7 °F -0.4 °F 57% 30.11 in 10.0 mi North 21.9 mph 27.6 mph N/A   Mostly Cloudy
11:35 AM 14.0 °F -3.4 °F 1.4 °F 57% 30.11 in 10.0 mi North 19.6 mph 26.5 mph N/A   Partly Cloudy
11:55 AM 14.0 °F -3.4 °F -0.4 °F 53% 30.10 in 10.0 mi NNE 19.6 mph 26.5 mph N/A   Clear
12:15 PM 15.8 °F -1.5 °F 1.4 °F 53% 30.10 in 10.0 mi North 20.7 mph 27.6 mph N/A   Clear
12:35 PM 15.8 °F -1.1 °F 1.4 °F 53% 30.10 in 10.0 mi North 19.6 mph 28.8 mph N/A   Clear
12:55 PM 15.8 °F -2.3 °F 1.4 °F 53% 30.10 in 10.0 mi North 23.0 mph 28.8 mph N/A   Clear
1:15 PM 17.6 °F 0.5 °F 1.4 °F 49% 30.10 in 10.0 mi North 21.9 mph 27.6 mph N/A   Clear
1:35 PM 17.6 °F 1.3 °F 1.4 °F 49% 30.10 in 10.0 mi North 19.6 mph 29.9 mph N/A   Clear
1:55 PM 17.6 °F 0.1 °F 1.4 °F 49% 30.10 in 10.0 mi North 23.0 mph 27.6 mph N/A   Clear
2:15 PM 17.6 °F 2.2 °F 1.4 °F 49% 30.10 in 10.0 mi North 17.3 mph 27.6 mph N/A   Clear
2:35 PM 19.4 °F 3.6 °F 1.4 °F 46% 30.09 in 10.0 mi North 19.6 mph 32.2 mph N/A   Clear
2:55 PM 19.4 °F 3.6 °F 1.4 °F 46% 30.09 in 10.0 mi North 19.6 mph 28.8 mph N/A   Clear
3:15 PM 19.4 °F 2.8 °F 1.4 °F 46% 30.09 in 10.0 mi North 21.9 mph 25.3 mph N/A   Clear
3:35 PM 19.4 °F 2.5 °F 1.4 °F 46% 30.08 in 10.0 mi NNE 23.0 mph 27.6 mph N/A   Clear
3:55 PM 19.4 °F 4.5 °F -0.4 °F 42% 30.08 in 10.0 mi North 17.3 mph 27.6 mph N/A   Clear
4:15 PM 21.2 °F 6.0 °F 1.4 °F 42% 30.08 in 10.0 mi North 19.6 mph 28.8 mph N/A   Clear
4:35 PM 21.2 °F 6.0 °F 1.4 °F 42% 30.08 in 10.0 mi North 19.6 mph 27.6 mph N/A   Clear
4:55 PM 21.2 °F 6.4 °F 1.4 °F 42% 30.08 in 10.0 mi North 18.4 mph 27.6 mph N/A   Clear
5:15 PM 21.2 °F 6.8 °F 1.4 °F 42% 30.08 in 10.0 mi North 17.3 mph 26.5 mph N/A   Clear
5:35 PM 21.2 °F 5.2 °F 1.4 °F 42% 30.09 in 10.0 mi North 21.9 mph 26.5 mph N/A   Clear
5:55 PM 21.2 °F 6.8 °F 1.4 °F 42% 30.09 in 10.0 mi North 17.3 mph 27.6 mph N/A   Clear
6:15 PM 21.2 °F 6.4 °F 1.4 °F 42% 30.10 in 10.0 mi North 18.4 mph 23.0 mph N/A   Clear
6:35 PM 21.2 °F 7.3 °F 1.4 °F 42% 30.10 in 10.0 mi NNE 16.1 mph 21.9 mph N/A   Clear
6:55 PM 19.4 °F 4.5 °F -0.4 °F 42% 30.10 in 10.0 mi North 17.3 mph 23.0 mph N/A   Clear
7:15 PM 19.4 °F 5.0 °F -0.4 °F 42% 30.10 in 10.0 mi North 16.1 mph 21.9 mph N/A   Clear
7:35 PM 17.6 °F 3.7 °F -0.4 °F 45% 30.10 in 10.0 mi North 13.8 mph 20.7 mph N/A   Clear
7:55 PM 17.6 °F 4.3 °F 1.4 °F 49% 30.10 in 10.0 mi North 12.7 mph 19.6 mph N/A   Clear
8:15 PM 17.6 °F 2.7 °F 1.4 °F 49% 30.10 in 10.0 mi North 16.1 mph 20.7 mph N/A   Clear
8:35 PM 15.8 °F 2.1 °F 1.4 °F 53% 30.11 in 10.0 mi North 12.7 mph - N/A   Clear
8:55 PM 15.8 °F 1.4 °F 1.4 °F 53% 30.11 in 10.0 mi North 13.8 mph 17.3 mph N/A   Clear
9:15 PM 15.8 °F 2.1 °F 1.4 °F 53% 30.11 in 10.0 mi North 12.7 mph - N/A   Clear
9:35 PM 14.0 °F -0.2 °F 1.4 °F 57% 30.11 in 10.0 mi NNE 12.7 mph - N/A   Clear
9:55 PM 14.0 °F -0.2 °F 1.4 °F 57% 30.12 in 10.0 mi NNE 12.7 mph 18.4 mph N/A   Clear
10:15 PM 14.0 °F 2.0 °F 1.4 °F 57% 30.12 in 10.0 mi NNE 9.2 mph - N/A   Clear
10:35 PM 12.2 °F -1.0 °F 1.4 °F 62% 30.12 in 10.0 mi NNE 10.4 mph - N/A   Clear
10:55 PM 12.2 °F -0.2 °F 1.4 °F 62% 30.11 in 10.0 mi NNE 9.2 mph - N/A   Clear
11:15 PM 10.4 °F -2.4 °F 1.4 °F 67% 30.11 in 10.0 mi NNE 9.2 mph - N/A   Clear
11:35 PM 10.4 °F -0.4 °F 1.4 °F 67% 30.11 in 10.0 mi NNE 6.9 mph - N/A   Clear
11:55 PM 10.4 °F -1.5 °F 1.4 °F 67% 30.10 in 10.0 mi North 8.1 mph - N/A   Clear